[[{"header":{"parameterUnit":"m.s-1","parameterCategory":1,"la1":30.2991,"la2":30.254,"lo1":-89.0895,"lo2":-89.0444,"dy":0.0017,"dx":0.0017,"nx":28,"ny":28,"refTime":"2024-11-22T09:00:00:Z","depth":0,"parameterNumber":2,"parameterNumberName":"U-component_of_WINDS"},"data":[0,0,0,0,0,0,0,0,0,0,0,0,0,0,0,0,0,0,0,0,0,0,0,0,0,0,0,0,0,0,0,0,0,0,0,0,0,0,0,0,0,0,0,0,0,0,0,0,0,0,0,0,0,0,0,0,0,0,-1.8581,-1.8582,0,-1.8697,-1.8699,-1.87,-1.8628,-1.8624,-1.8621,-1.8618,-1.874,-1.8746,-1.8752,0,0,0,0,0,0,0,0,0,0,0,0,0,-1.8298,-1.8303,-1.8581,-1.8582,-1.8584,-1.8697,-1.8699,-1.87,-1.8628,-1.8624,-1.862,-1.8616,-1.8738,-1.8745,-1.8753,0,0,0,0,0,0,0,0,0,0,0,0,0,-1.8418,-1.8305,-1.8581,-1.8561,-1.8561,-1.8697,-1.8699,-1.8701,-1.8629,-1.8624,-1.8619,-1.8614,-1.8735,-1.8745,-1.8754,-1.8917,0,0,-1.8784,-1.8788,0,0,0,0,0,0,0,0,-1.8411,-1.8429,-1.8563,-1.8563,-1.8563,-1.8643,-1.8644,-1.8773,-1.863,-1.8603,-1.8617,-1.8612,-1.8712,-1.8723,-1.8756,-1.8922,-1.8928,-1.8785,-1.879,-1.8795,-1.8797,0,0,0,0,0,0,0,-1.8403,-1.8423,-1.8627,-1.8565,-1.8565,-1.8547,-1.8559,-1.8668,-1.8685,-1.8605,-1.86,-1.8615,-1.8711,-1.8747,-1.8759,-1.8929,-1.8784,-1.8793,-1.8799,-1.8803,-1.9233,-1.9238,0,0,0,0,0,0,-1.8396,-1.8417,-1.8623,-1.8631,-1.8473,-1.8557,-1.8569,-1.8622,-1.8684,-1.8688,-1.8619,-1.8611,-1.8733,-1.8747,-1.8763,-1.8956,-1.8794,-1.8804,-1.8809,-1.9227,-1.9234,-1.924,0,0,0,0,0,0,-1.839,-1.8415,-1.8619,-1.8522,-1.8547,-1.8567,-1.8627,-1.8627,-1.8663,-1.8694,-1.8697,-1.8653,-1.873,-1.8749,-1.8878,-1.896,-1.8808,-1.8817,-1.9221,-1.9229,-1.9237,-1.9346,0,0,0,0,0,0,-1.8382,-1.8413,-1.8475,-1.8524,-1.8552,-1.8733,-1.8632,-1.8633,-1.868,-1.8671,-1.8727,-1.8731,-1.8727,-1.8864,-1.8888,-1.897,-1.8824,-1.9214,-1.9225,-1.9235,-1.9335,-1.9357,-1.9375,0,0,0,0,0,-1.8372,-1.8502,-1.8479,-1.8504,-1.863,-1.8737,-1.8753,-1.8745,-1.8687,-1.8749,-1.8769,-1.8729,-1.8946,-1.8878,-1.8904,-1.8991,-1.9208,-1.9221,-1.9234,-1.9326,-1.9352,-1.9375,0,0,0,0,0,0,-1.8464,-1.8508,-1.8483,-1.8632,-1.8681,-1.8725,-1.8804,-1.8774,-1.8842,-1.883,-1.8818,-1.8831,-1.8966,-1.8991,-1.8914,-1.915,-1.9068,-1.9087,-1.9129,-1.9155,-1.9175,-1.9167,-1.8832,0,0,0,0,0,-1.8501,-1.8584,-1.8618,-1.8747,-1.8772,-1.8784,-1.883,-1.882,-1.8871,-1.8891,-1.892,-1.8972,-1.9051,-1.9104,-1.9179,-1.9337,-1.9348,-1.9409,-1.943,-1.9446,-1.9463,-1.9547,-1.9575,-1.9282,-1.9282,-1.9281,0,0,-1.858,-1.8614,-1.8667,-1.8766,-1.8803,-1.8889,-1.8802,-1.8898,-1.8962,-1.8906,-1.903,-1.9052,-1.9109,-1.9253,-1.9318,-1.9278,-1.9546,-1.9462,-1.9475,-1.9483,-1.9563,-1.9591,-1.9615,-1.929,-1.9289,-1.9287,0,0,-1.8767,-1.8801,-1.8911,-1.8949,-1.9005,-1.9012,-1.9038,-1.9086,-1.9099,-1.9222,-1.9182,-1.9258,-1.9395,-1.9437,-1.9476,-1.9676,-1.9643,-1.9701,-1.9808,-1.989,-1.9913,-1.9934,-2.0005,-2.0031,-1.9717,-1.9718,-1.9718,0,-1.8858,-1.8986,-1.8972,-1.907,-1.9115,-1.9066,-1.9178,-1.9216,-1.9294,-1.9326,-1.9279,-1.945,-1.9485,-1.9638,-1.9686,-1.972,-1.9749,-1.9696,-1.9911,-1.9931,-1.995,-2.0018,-2.0045,-1.9724,-1.9724,-1.9723,-1.9722,0,-1.9094,-1.9184,-1.9266,-1.9341,-1.9395,-1.9499,-1.9502,-1.9557,-1.9541,-1.9553,-1.9678,-1.9718,-1.9799,-1.9834,-1.9821,-1.9985,-1.9958,-1.9912,-1.9829,-1.9985,-2.0049,-2.0075,-1.9734,-1.9732,-1.973,-1.9728,0,0,-1.9345,-1.9409,-1.944,-1.9473,-1.953,-1.9599,-1.9701,-1.9779,-1.9827,-1.9882,-1.9968,-2.0084,-2.004,-2.0085,-2.0075,-2.0147,-2.0303,-2.0091,-2.0092,-2.013,-2.0486,-2.0521,-2.0552,-2.028,-2.0285,-2.0289,-2.0481,0,-1.9535,-1.9712,-1.9702,-1.9869,-1.9951,-1.9905,-1.9993,-2.0038,-2.0051,-2.0122,-2.0136,-2.0219,-2.0155,-2.0181,-2.0251,-2.0269,-2.0374,-2.0255,-2.036,-2.0364,-2.0348,-2.0585,-2.0623,-2.0803,-2.0506,-2.051,-2.0513,0,-1.9782,-1.9844,-2.0018,-2.0062,-2.0096,-2.0176,-2.0246,-2.0315,-2.0364,-2.0368,-2.0417,-2.0394,-2.0497,-2.0411,-2.0552,-2.0471,-2.0513,-2.0528,-2.0535,-2.0545,-2.0449,-2.0602,-2.0861,-2.0888,-2.0553,-2.0549,-2.0547,0,-1.9948,-2.0074,-2.0195,-2.0224,-2.0278,-2.0335,-2.036,-2.0404,-2.0452,-2.0513,-2.0544,-2.0617,-2.0657,-2.0714,-2.0712,-2.0649,-2.0855,-2.0768,-2.0861,-2.0862,-2.0908,-2.0905,-2.1177,-2.0934,-2.0933,-2.0933,-2.0932,0,-2.0162,-2.0271,-2.0269,-2.0344,-2.0463,-2.045,-2.0569,-2.0588,-2.0628,-2.0705,-2.0669,-2.0743,-2.0734,-2.0808,-2.0807,-2.0924,-2.0942,-2.0948,-2.0947,-2.0952,-2.0951,-2.098,-2.0968,-2.094,-2.0939,-2.0937,-2.0936,0,-2.0368,-2.0371,-2.05,-2.0539,-2.0551,-2.0638,-2.0672,-2.0742,-2.075,-2.0848,-2.0871,-2.0884,-2.0969,-2.0971,-2.1069,-2.1068,-2.1211,-2.1195,-2.1194,-2.1191,-2.1284,-2.1275,-2.1584,-2.1624,-2.1355,-2.1357,-2.1359,0,-2.0505,-2.0587,-2.0635,-2.0683,-2.0712,-2.0791,-2.0838,-2.0828,-2.0878,-2.094,-2.1003,-2.1083,-2.1148,-2.1285,-2.1304,-2.1378,-2.1364,-2.1467,-2.1375,-2.1377,-2.1366,-2.1361,-2.1369,-2.1486,-2.1489,-2.1491,-2.1493,0,-2.0749,-2.0746,-2.0815,-2.0885,-2.0942,-2.0997,-2.1048,-2.1089,-2.1085,-2.1144,-2.1229,-2.1279,-2.1377,-2.1458,-2.1529,-2.1555,-2.1524,-2.1521,-2.1547,-2.1553,-2.1549,-2.1553,-2.1243,-2.1515,-2.1513,-2.1511,-2.151,-2.1509,-2.0925,-2.0995,-2.1039,-2.1117,-2.1153,-2.1201,-2.1269,-2.1284,-2.1355,-2.1434,-2.1423,-2.1518,-2.1564,-2.1656,-2.1688,-2.1762,-2.1726,-2.1763,-2.1773,-2.1782,-2.1792,-2.1537,-2.1775,-2.1774,-2.1774,-2.1773,-2.1773,0,-2.1166,-2.1191,-2.1263,-2.1334,-2.1396,-2.1359,-2.1412,-2.1466,-2.155,-2.1595,-2.1658,-2.1755,-2.1833,-2.1857,-2.1932,-2.1986,-2.1974,-2.2006,-2.2003,-2.2009,-2.182,-2.179,-2.2015,-2.2015,-2.2015,-2.2015,-2.2015,-2.2015,-2.1299,-2.1416,-2.1418,-2.1552,-2.1576,-2.1668,-2.1702,-2.1746,-2.1781,-2.1891,-2.1955,-2.1969,-2.2006,-2.2082,-2.2152,-2.2157,-2.2186,-2.2225,-2.2224,-2.2047,-2.2023,-2.1999,-2.1972,-2.2231,-2.2231,-2.2407,-2.2409,-2.241]},{"header":{"parameterUnit":"m.s-1","parameterCategory":1,"la1":30.2991,"la2":30.254,"lo1":-89.0895,"lo2":-89.0444,"dy":0.0017,"dx":0.0017,"nx":28,"ny":28,"refTime":"2024-11-22T09:00:00:Z","depth":0,"parameterNumber":3,"parameterNumberName":"V-component_of_WINDS"},"data":[0,0,0,0,0,0,0,0,0,0,0,0,0,0,0,0,0,0,0,0,0,0,0,0,0,0,0,0,0,0,0,0,0,0,0,0,0,0,0,0,0,0,0,0,0,0,0,0,0,0,0,0,0,0,0,0,0,0,-4.2852,-4.2853,0,-4.2942,-4.2943,-4.2944,-4.2878,-4.2875,-4.2872,-4.287,-4.2959,-4.2964,-4.2969,0,0,0,0,0,0,0,0,0,0,0,0,0,-4.2619,-4.2624,-4.2852,-4.2853,-4.2854,-4.2941,-4.2943,-4.2944,-4.2879,-4.2875,-4.2872,-4.2868,-4.2957,-4.2963,-4.2969,0,0,0,0,0,0,0,0,0,0,0,0,0,-4.2716,-4.2625,-4.2852,-4.2832,-4.2831,-4.2941,-4.2943,-4.2944,-4.2879,-4.2875,-4.2871,-4.2867,-4.2955,-4.2962,-4.297,-4.3103,0,0,-4.2993,-4.2996,0,0,0,0,0,0,0,0,-4.271,-4.2724,-4.2834,-4.2834,-4.2833,-4.2894,-4.2893,-4.2997,-4.288,-4.2861,-4.2869,-4.2864,-4.2941,-4.2949,-4.2975,-4.3107,-4.3111,-4.2994,-4.2998,-4.3002,-4.3004,0,0,0,0,0,0,0,-4.2704,-4.272,-4.2887,-4.2835,-4.2835,-4.2817,-4.2826,-4.2913,-4.2924,-4.2862,-4.2858,-4.2869,-4.2939,-4.2968,-4.2977,-4.3113,-4.2994,-4.3,-4.3005,-4.3008,-4.3355,-4.3359,0,0,0,0,0,0,-4.2699,-4.2715,-4.2884,-4.289,-4.276,-4.2825,-4.2835,-4.2879,-4.2923,-4.2925,-4.2873,-4.2866,-4.2957,-4.2968,-4.298,-4.3136,-4.3002,-4.3009,-4.3013,-4.335,-4.3356,-4.3361,0,0,0,0,0,0,-4.2695,-4.2715,-4.2881,-4.2801,-4.2821,-4.2834,-4.2883,-4.2883,-4.2912,-4.2931,-4.2932,-4.2901,-4.2954,-4.2969,-4.3072,-4.3139,-4.3012,-4.3019,-4.3345,-4.3352,-4.3358,-4.3452,0,0,0,0,0,0,-4.2688,-4.2714,-4.2766,-4.2803,-4.2825,-4.2974,-4.2888,-4.2888,-4.2925,-4.2917,-4.2957,-4.296,-4.2952,-4.3062,-4.308,-4.3147,-4.3025,-4.3339,-4.3348,-4.3356,-4.3443,-4.3462,-4.3477,0,0,0,0,0,-4.268,-4.2789,-4.2769,-4.279,-4.2891,-4.2978,-4.299,-4.298,-4.2931,-4.2982,-4.2994,-4.2958,-4.3129,-4.3073,-4.3093,-4.3163,-4.3334,-4.3345,-4.3355,-4.3436,-4.3458,-4.3477,0,0,0,0,0,0,-4.2759,-4.2794,-4.2772,-4.2896,-4.2934,-4.2966,-4.3031,-4.3005,-4.3058,-4.3048,-4.3032,-4.3041,-4.3149,-4.3167,-4.3104,-4.3293,-4.3223,-4.3238,-4.3277,-4.3299,-4.3316,-4.3309,-4.3031,0,0,0,0,0,-4.2791,-4.286,-4.2886,-4.2993,-4.3013,-4.3019,-4.3056,-4.3045,-4.3084,-4.31,-4.3119,-4.3157,-4.3219,-4.326,-4.3318,-4.3446,-4.3452,-4.3503,-4.352,-4.3534,-4.3547,-4.3613,-4.3635,-4.3395,-4.3395,-4.3395,0,0,-4.2858,-4.2885,-4.2929,-4.3009,-4.3038,-4.3107,-4.3033,-4.3111,-4.3161,-4.3111,-4.3209,-4.3225,-4.3266,-4.3382,-4.3433,-4.3399,-4.3615,-4.3548,-4.3559,-4.3564,-4.3626,-4.3649,-4.3669,-4.3402,-4.3401,-4.34,0,0,-4.3014,-4.3043,-4.3134,-4.3164,-4.3208,-4.321,-4.3232,-4.3268,-4.3276,-4.3375,-4.3338,-4.3397,-4.3505,-4.3535,-4.3564,-4.3729,-4.3697,-4.3749,-4.3837,-4.3901,-4.392,-4.3937,-4.3994,-4.4014,-4.3762,-4.3762,-4.3762,0,-4.3091,-4.3196,-4.3184,-4.3264,-4.3299,-4.3256,-4.3347,-4.3376,-4.3437,-4.3461,-4.3422,-4.3554,-4.3579,-4.3699,-4.3739,-4.3765,-4.3788,-4.3744,-4.3919,-4.3935,-4.3951,-4.4004,-4.4026,-4.3768,-4.3767,-4.3766,-4.3766,0,-4.3287,-4.336,-4.3428,-4.3488,-4.353,-4.3615,-4.3614,-4.3658,-4.3643,-4.3649,-4.3748,-4.3777,-4.3838,-4.3866,-4.3852,-4.3984,-4.3961,-4.3921,-4.3851,-4.3979,-4.403,-4.405,-4.3776,-4.3774,-4.3772,-4.3771,0,0,-4.3497,-4.3547,-4.3572,-4.3597,-4.3642,-4.3697,-4.3779,-4.3839,-4.3877,-4.3919,-4.3986,-4.4076,-4.4039,-4.4072,-4.4061,-4.4117,-4.4243,-4.407,-4.407,-4.4099,-4.4387,-4.4416,-4.444,-4.4222,-4.4226,-4.423,-4.4383,0,-4.3654,-4.3798,-4.3788,-4.3922,-4.3988,-4.3947,-4.4018,-4.4052,-4.4059,-4.4115,-4.4122,-4.4186,-4.4133,-4.4152,-4.4207,-4.4217,-4.43,-4.4205,-4.4282,-4.4285,-4.4272,-4.4467,-4.4498,-4.4641,-4.4402,-4.4406,-4.4408,0,-4.3858,-4.3907,-4.4048,-4.4079,-4.4106,-4.4171,-4.4224,-4.4278,-4.4314,-4.4315,-4.4352,-4.433,-4.441,-4.4339,-4.4447,-4.4383,-4.4413,-4.4422,-4.4428,-4.4433,-4.4354,-4.4476,-4.4687,-4.4708,-4.4439,-4.4437,-4.4435,0,-4.3994,-4.4095,-4.4192,-4.4215,-4.4255,-4.43,-4.4319,-4.4351,-4.4387,-4.4433,-4.4456,-4.4511,-4.4541,-4.4583,-4.4576,-4.4525,-4.4685,-4.4614,-4.4687,-4.4687,-4.4722,-4.4719,-4.4939,-4.4744,-4.4744,-4.4744,-4.4743,0,-4.417,-4.4257,-4.4253,-4.4313,-4.4408,-4.4395,-4.4489,-4.4502,-4.4531,-4.459,-4.4559,-4.4615,-4.4603,-4.4658,-4.4653,-4.4742,-4.4756,-4.4758,-4.4755,-4.476,-4.476,-4.4779,-4.4768,-4.4749,-4.4748,-4.4747,-4.4746,0,-4.4338,-4.434,-4.4442,-4.4471,-4.448,-4.4549,-4.4573,-4.4628,-4.4632,-4.4707,-4.4724,-4.4731,-4.4794,-4.4791,-4.4863,-4.4859,-4.4968,-4.4955,-4.4956,-4.4953,-4.5025,-4.5017,-4.5263,-4.5294,-4.5081,-4.5083,-4.5085,0,-4.445,-4.4516,-4.4552,-4.4589,-4.4611,-4.4673,-4.4709,-4.4698,-4.4736,-4.4781,-4.483,-4.4891,-4.4938,-4.5041,-4.5051,-4.5105,-4.5091,-4.5173,-4.5099,-4.5101,-4.509,-4.5085,-4.509,-4.5188,-4.519,-4.5192,-4.5194,0,-4.4647,-4.4644,-4.4698,-4.4752,-4.4797,-4.4838,-4.4877,-4.4909,-4.4901,-4.4946,-4.5011,-4.5048,-4.512,-4.518,-4.5231,-4.5248,-4.5219,-4.5217,-4.5236,-4.5241,-4.5239,-4.5239,-4.4994,-4.5211,-4.521,-4.5208,-4.5207,-4.5207,-4.4789,-4.4845,-4.4878,-4.4939,-4.4966,-4.5002,-4.5054,-4.5064,-4.5118,-4.5177,-4.5166,-4.5238,-4.5269,-4.5335,-4.5357,-4.5411,-4.5381,-4.541,-4.5417,-4.5424,-4.5431,-4.5231,-4.542,-4.542,-4.5419,-4.5419,-4.5419,0,-4.4983,-4.5002,-4.5058,-4.5112,-4.5159,-4.5128,-4.5168,-4.5209,-4.5273,-4.5305,-4.5352,-4.5424,-4.5481,-4.5495,-4.5549,-4.559,-4.5578,-4.5604,-4.56,-4.5604,-4.5455,-4.5432,-4.5613,-4.5613,-4.5613,-4.5613,-4.5613,-4.5613,-4.5089,-4.5181,-4.5181,-4.5285,-4.5303,-4.5373,-4.5398,-4.543,-4.5455,-4.5538,-4.5585,-4.5594,-4.5618,-4.5673,-4.5723,-4.5725,-4.5745,-4.5777,-4.5774,-4.5634,-4.5615,-4.5596,-4.5575,-4.5782,-4.5782,-4.5918,-4.5919,-4.592]}]]